Hoolehua, HI

7:26 PM HST on September 28, 2016 (GMT -1000)
Molokai

Weather History for PHMK - September, 2013

Change the Weather History Date:

Saturday, September 7, 2013

  Actual Average Record
Temperature  
Mean Temperature 78 °F -  
Max Temperature 84 °F 85 °F 90 °F (1973)
Min Temperature 71 °F 71 °F 64 °F (2007)
Cooling Degree Days 12    
Growing Degree Days 28 (Base 50)    
Moisture  
Dew Point 72 °F    
Average Humidity 85    
Maximum Humidity 100    
Minimum Humidity 63    
Precipitation  
Precipitation 0.02 in - - ()
Sea Level Pressure  
Sea Level Pressure 30.04 in    
Wind  
Wind Speed 9 mph (NE)    
Max Wind Speed 20 mph    
Max Gust Speed 29 mph    
Visibility 10 miles    
Events Rain    
Averages and records for this station are not official NWS values.
T = Trace of Precipitation, MM = Missing Value Source: NWS Daily Summary

Daily Weather History Graph

Daily Weather History Graph

Search for Another Location

Airport or City:

Trip Planner

Search our weather history database for the weather conditions in past years. The results will help you decide how hot, cold, wet, or windy it might be!

Date:

Astronomy

Sep. 07, 2013 Rise Set
Actual Time 6:13 AM HST 6:38 PM HST
Civil Twilight 5:51 AM HST 7:00 PM HST
Nautical Twilight 5:25 AM HST 7:26 PM HST
Astronomical Twilight 4:58 AM HST 7:53 PM HST
Moon 8:14 AM HST (9/7) 8:11 PM HST (9/7)
Length of Visible Light 13h 09m
Length of Day
12h 24m
Waxing Crescent, 6% of the Moon is Illuminated
Sep 7
Waxing Crescent
Sep 12
First Quarter
Sep 19
Full
Sep 26
Last Quarter
Oct 4
New

Hourly Weather History & Observations

Time (HST) Temp. Heat Index Dew Point Humidity Pressure Visibility Wind Dir Wind Speed Gust Speed Precip Events Conditions
12:36 AM 71.6 °F - 71.6 °F 100% 30.07 in 8.0 mi North 4.6 mph - 0.00 in Rain Light Rain
12:47 AM 71.6 °F - 71.6 °F 100% 30.07 in 10.0 mi North 5.8 mph - 0.00 in   Scattered Clouds
12:54 AM 72.0 °F - 72.0 °F 100% 30.07 in 10.0 mi North 6.9 mph - 0.00 in   Scattered Clouds
1:54 AM 73.0 °F - 72.0 °F 96% 30.05 in 10.0 mi NNE 6.9 mph - 0.00 in   Scattered Clouds
2:54 AM 73.0 °F - 72.0 °F 96% 30.04 in 10.0 mi North 8.1 mph - N/A   Scattered Clouds
3:54 AM 73.0 °F - 72.0 °F 96% 30.03 in 10.0 mi NNE 9.2 mph - N/A   Clear
4:54 AM 73.9 °F - 72.0 °F 93% 30.04 in 10.0 mi NE 5.8 mph - N/A   Scattered Clouds
5:54 AM 73.0 °F - 73.0 °F 100% 30.05 in 10.0 mi ENE 6.9 mph - 0.01 in Rain Light Rain
6:54 AM 72.0 °F - 72.0 °F 100% 30.05 in 10.0 mi SW 4.6 mph - 0.01 in   Mostly Cloudy
7:54 AM 75.0 °F - 73.0 °F 94% 30.06 in 10.0 mi Calm Calm - N/A   Mostly Cloudy
8:54 AM 79.0 °F - 73.0 °F 82% 30.06 in 10.0 mi NE 9.2 mph - N/A   Mostly Cloudy
9:54 AM 82.0 °F 86.7 °F 72.0 °F 71% 30.05 in 10.0 mi NNE 10.4 mph 18.4 mph N/A   Partly Cloudy
10:54 AM 84.0 °F 90.2 °F 73.0 °F 69% 30.05 in 10.0 mi NNE 11.5 mph - N/A   Scattered Clouds
11:54 AM 84.0 °F 89.0 °F 71.1 °F 65% 30.03 in 10.0 mi NE 13.8 mph 26.5 mph N/A   Partly Cloudy
12:54 PM 84.9 °F 90.1 °F 71.1 °F 63% 30.02 in 10.0 mi NE 18.4 mph 25.3 mph N/A   Scattered Clouds
1:54 PM 84.0 °F 89.6 °F 72.0 °F 67% 29.99 in 10.0 mi NNE 19.6 mph 27.6 mph N/A   Scattered Clouds
2:54 PM 82.9 °F 88.0 °F 72.0 °F 69% 29.98 in 10.0 mi NNE 17.3 mph 28.8 mph N/A   Scattered Clouds
3:54 PM 81.0 °F 85.2 °F 72.0 °F 74% 29.98 in 10.0 mi NE 18.4 mph 27.6 mph N/A   Scattered Clouds
4:54 PM 81.0 °F 85.2 °F 72.0 °F 74% 29.99 in 10.0 mi NE 16.1 mph 23.0 mph N/A   Scattered Clouds
5:54 PM 79.0 °F - 72.0 °F 79% 30.00 in 10.0 mi NE 10.4 mph 19.6 mph N/A   Clear
6:54 PM 75.9 °F - 72.0 °F 87% 30.01 in 10.0 mi NNE 9.2 mph 19.6 mph N/A   Clear
7:54 PM 75.9 °F - 72.0 °F 87% 30.03 in 10.0 mi NNE 10.4 mph 18.4 mph N/A   Clear
8:54 PM 75.9 °F - 73.0 °F 91% 30.05 in 10.0 mi NE 13.8 mph 19.6 mph N/A   Clear
9:54 PM 75.0 °F - 71.1 °F 87% 30.06 in 10.0 mi NE 10.4 mph 18.4 mph N/A   Partly Cloudy
10:54 PM 75.0 °F - 72.0 °F 90% 30.06 in 10.0 mi NE 10.4 mph 17.3 mph N/A   Scattered Clouds
11:54 PM 73.9 °F - 71.1 °F 91% 30.06 in 10.0 mi NE 8.1 mph 18.4 mph N/A   Partly Cloudy